Time,TemperatureF,DewpointF,PressureIn,WindDirection,WindDirectionDegrees,WindSpeedMPH,WindSpeedGustMPH,Humidity,HourlyPrecipIn,Conditions,Clouds,dailyrainin,SoftwareType,DateUTC
2013-01-30 00:03:00,55.5,51.1,29.80,SSE,156,0.0,0.0,85,0.00,,,0.02,Wunderground v.1.15,2013-01-30 05:03:00,
2013-01-30 00:06:00,55.4,50.6,29.80,SSE,156,0.0,0.0,84,0.00,,,0.00,Wunderground v.1.15,2013-01-30 05:06:00,
2013-01-30 00:07:00,55.4,51.0,29.80,SSE,156,0.0,0.0,85,0.00,,,0.00,Wunderground v.1.15,2013-01-30 05:07:00,
2013-01-30 00:13:00,55.3,50.9,29.80,SSE,157,0.0,0.0,85,0.00,,,0.00,Wunderground v.1.15,2013-01-30 05:13:00,
2013-01-30 00:16:00,55.4,51.0,29.80,South,184,0.0,1.0,85,0.00,,,0.00,Wunderground v.1.15,2013-01-30 05:16:00,
2013-01-30 00:21:00,55.5,50.7,29.80,South,184,0.0,0.0,84,0.00,,,0.00,Wunderground v.1.15,2013-01-30 05:21:00,
2013-01-30 00:26:00,55.4,50.6,29.78,South,184,0.0,0.0,84,0.00,,,0.00,Wunderground v.1.15,2013-01-30 05:26:00,
2013-01-30 00:32:00,55.1,50.4,29.78,South,184,0.0,0.0,84,0.00,,,0.00,Wunderground v.1.15,2013-01-30 05:32:00,
2013-01-30 00:37:00,54.6,50.2,29.78,South,184,0.0,0.0,85,0.00,,,0.00,Wunderground v.1.15,2013-01-30 05:37:00,
2013-01-30 00:43:00,54.2,50.1,29.77,South,184,0.0,0.0,86,0.00,,,0.00,Wunderground v.1.15,2013-01-30 05:43:00,
2013-01-30 00:48:00,54.1,50.0,29.77,South,184,0.0,0.0,86,0.00,,,0.00,Wunderground v.1.15,2013-01-30 05:48:00,
2013-01-30 00:53:00,53.8,49.7,29.77,South,184,0.0,0.0,86,0.00,,,0.00,Wunderground v.1.15,2013-01-30 05:53:00,
2013-01-30 00:58:00,53.7,49.9,29.76,South,184,0.0,0.0,87,0.00,,,0.00,Wunderground v.1.15,2013-01-30 05:58:00,
2013-01-30 01:04:00,53.5,49.4,29.76,South,184,0.0,0.0,86,0.00,,,0.00,Wunderground v.1.15,2013-01-30 06:04:00,
2013-01-30 01:09:00,53.4,49.6,29.75,South,184,0.0,0.0,87,0.00,,,0.00,Wunderground v.1.15,2013-01-30 06:09:00,
2013-01-30 01:14:00,53.2,49.4,29.75,South,184,0.0,0.0,87,0.00,,,0.00,Wunderground v.1.15,2013-01-30 06:14:00,
2013-01-30 01:20:00,53.2,49.4,29.75,South,184,0.0,0.0,87,0.00,,,0.00,Wunderground v.1.15,2013-01-30 06:20:00,
2013-01-30 01:25:00,53.1,49.3,29.74,South,184,0.0,0.0,87,0.00,,,0.00,Wunderground v.1.15,2013-01-30 06:25:00,
2013-01-30 01:31:00,52.9,49.1,29.74,South,184,0.0,0.0,87,0.00,,,0.00,Wunderground v.1.15,2013-01-30 06:31:00,
2013-01-30 01:37:00,52.8,49.0,29.74,SE,131,0.0,1.0,87,0.00,,,0.00,Wunderground v.1.15,2013-01-30 06:37:00,
2013-01-30 01:42:00,53.3,49.2,29.73,SE,139,0.0,0.0,86,0.00,,,0.00,Wunderground v.1.15,2013-01-30 06:42:00,
2013-01-30 01:47:00,53.7,49.0,29.73,East,87,0.0,0.0,84,0.00,,,0.00,Wunderground v.1.15,2013-01-30 06:47:00,
2013-01-30 01:52:00,54.1,49.4,29.72,SE,146,0.0,0.0,84,0.00,,,0.00,Wunderground v.1.15,2013-01-30 06:52:00,
2013-01-30 01:57:00,54.5,48.8,29.71,SE,124,0.0,1.0,81,0.00,,,0.00,Wunderground v.1.15,2013-01-30 06:57:00,
2013-01-30 02:03:00,55.0,49.3,29.71,SSW,192,0.0,0.0,81,0.00,,,0.00,Wunderground v.1.15,2013-01-30 07:03:00,
2013-01-30 02:08:00,55.8,49.7,29.71,ESE,104,1.0,3.0,80,0.00,,,0.00,Wunderground v.1.15,2013-01-30 07:08:00,
2013-01-30 02:13:00,55.7,49.3,29.71,SE,126,0.0,0.0,79,0.00,,,0.00,Wunderground v.1.15,2013-01-30 07:13:00,
2013-01-30 02:18:00,55.5,49.1,29.71,SSW,192,0.0,2.0,79,0.00,,,0.00,Wunderground v.1.15,2013-01-30 07:18:00,
2013-01-30 02:24:00,55.3,48.9,29.70,SSW,197,0.0,1.0,79,0.00,,,0.00,Wunderground v.1.15,2013-01-30 07:24:00,
2013-01-30 02:29:00,55.4,49.3,29.70,South,188,0.0,1.0,80,0.00,,,0.00,Wunderground v.1.15,2013-01-30 07:29:00,
2013-01-30 02:34:00,55.7,48.9,29.70,East,93,0.0,1.0,78,0.00,,,0.00,Wunderground v.1.15,2013-01-30 07:34:00,
2013-01-30 02:39:00,56.4,49.6,29.70,ENE,59,1.0,1.0,78,0.00,,,0.00,Wunderground v.1.15,2013-01-30 07:39:00,
2013-01-30 02:45:00,56.2,49.4,29.69,East,91,0.0,1.0,78,0.00,,,0.00,Wunderground v.1.15,2013-01-30 07:45:00,
2013-01-30 02:50:00,56.1,49.3,29.70,ENE,71,0.0,0.0,78,0.00,,,0.00,Wunderground v.1.15,2013-01-30 07:50:00,
2013-01-30 02:55:00,56.1,49.7,29.69,SSW,207,0.0,0.0,79,0.00,,,0.00,Wunderground v.1.15,2013-01-30 07:55:00,
2013-01-30 03:00:00,55.9,49.8,29.69,SSW,207,0.0,0.0,80,0.00,,,0.00,Wunderground v.1.15,2013-01-30 08:00:00,
2013-01-30 03:06:00,55.8,49.4,29.69,SE,138,0.0,0.0,79,0.00,,,0.00,Wunderground v.1.15,2013-01-30 08:06:00,
2013-01-30 03:11:00,55.8,49.4,29.69,SE,138,0.0,0.0,79,0.00,,,0.00,Wunderground v.1.15,2013-01-30 08:11:00,
2013-01-30 03:16:00,55.8,49.4,29.68,ESE,109,0.0,0.0,79,0.00,,,0.00,Wunderground v.1.15,2013-01-30 08:16:00,
2013-01-30 03:22:00,55.5,49.4,29.68,East,83,0.0,0.0,80,0.00,,,0.00,Wunderground v.1.15,2013-01-30 08:22:00,
2013-01-30 03:27:00,55.3,49.6,29.68,SE,124,0.0,0.0,81,0.00,,,0.00,Wunderground v.1.15,2013-01-30 08:27:00,
2013-01-30 03:32:00,55.1,49.4,29.67,SE,124,0.0,0.0,81,0.00,,,0.00,Wunderground v.1.15,2013-01-30 08:32:00,
2013-01-30 03:37:00,55.0,49.3,29.67,East,82,0.0,0.0,81,0.00,,,0.00,Wunderground v.1.15,2013-01-30 08:37:00,
2013-01-30 03:43:00,55.1,49.4,29.66,ESE,106,0.0,0.0,81,0.00,,,0.00,Wunderground v.1.15,2013-01-30 08:43:00,
2013-01-30 03:48:00,55.1,49.7,29.66,ESE,106,0.0,0.0,82,0.00,,,0.00,Wunderground v.1.15,2013-01-30 08:48:00,
2013-01-30 03:53:00,55.0,49.6,29.65,East,90,0.0,0.0,82,0.00,,,0.00,Wunderground v.1.15,2013-01-30 08:53:00,
2013-01-30 03:58:00,54.9,49.5,29.65,East,99,0.0,0.0,82,0.00,,,0.00,Wunderground v.1.15,2013-01-30 08:58:00,
2013-01-30 04:04:00,54.9,49.5,29.65,East,99,0.0,0.0,82,0.00,,,0.00,Wunderground v.1.15,2013-01-30 09:04:00,
2013-01-30 04:09:00,55.1,49.4,29.64,SSE,165,0.0,0.0,81,0.00,,,0.00,Wunderground v.1.15,2013-01-30 09:09:00,
2013-01-30 04:14:00,55.5,49.4,29.64,South,173,0.0,1.0,80,0.00,,,0.00,Wunderground v.1.15,2013-01-30 09:14:00,
2013-01-30 04:20:00,55.7,50.0,29.63,South,171,0.0,0.0,81,0.00,,,0.00,Wunderground v.1.15,2013-01-30 09:20:00,
2013-01-30 04:25:00,55.8,49.7,29.63,South,175,0.0,2.0,80,0.00,,,0.00,Wunderground v.1.15,2013-01-30 09:25:00,
2013-01-30 04:30:00,56.0,49.9,29.63,SW,236,0.0,0.0,80,0.00,,,0.00,Wunderground v.1.15,2013-01-30 09:30:00,
2013-01-30 04:35:00,56.0,50.3,29.62,South,174,0.0,0.0,81,0.00,,,0.00,Wunderground v.1.15,2013-01-30 09:35:00,
2013-01-30 04:41:00,55.9,50.2,29.62,South,174,0.0,0.0,81,0.00,,,0.00,Wunderground v.1.15,2013-01-30 09:41:00,
2013-01-30 04:47:00,56.0,49.9,29.62,SSW,194,0.0,0.0,80,0.00,,,0.00,Wunderground v.1.15,2013-01-30 09:47:00,
2013-01-30 04:52:00,56.2,49.8,29.61,ESE,103,0.0,2.0,79,0.00,,,0.00,Wunderground v.1.15,2013-01-30 09:52:00,
2013-01-30 04:57:00,56.9,50.5,29.61,South,175,0.0,3.0,79,0.00,,,0.00,Wunderground v.1.15,2013-01-30 09:57:00,
2013-01-30 05:02:00,57.3,50.5,29.60,ENE,74,0.0,0.0,78,0.00,,,0.00,Wunderground v.1.15,2013-01-30 10:02:00,
2013-01-30 05:07:00,58.0,50.5,29.60,SE,132,0.0,1.0,76,0.00,,,0.00,Wunderground v.1.15,2013-01-30 10:07:00,
2013-01-30 05:12:00,59.7,51.0,29.60,SSW,205,1.0,3.0,73,0.00,,,0.00,Wunderground v.1.15,2013-01-30 10:12:00,
2013-01-30 05:18:00,60.9,51.0,29.59,SSE,167,2.0,7.0,70,0.00,,,0.00,Wunderground v.1.15,2013-01-30 10:18:00,
2013-01-30 05:23:00,61.2,51.3,29.59,SE,136,1.0,2.0,70,0.00,,,0.00,Wunderground v.1.15,2013-01-30 10:23:00,
2013-01-30 05:28:00,60.8,51.3,29.59,SSE,152,0.0,2.0,71,0.00,,,0.00,Wunderground v.1.15,2013-01-30 10:28:00,
2013-01-30 05:33:00,60.3,51.2,29.59,South,182,0.0,0.0,72,0.00,,,0.00,Wunderground v.1.15,2013-01-30 10:33:00,
2013-01-30 05:39:00,59.6,50.9,29.59,SSE,162,0.0,2.0,73,0.00,,,0.00,Wunderground v.1.15,2013-01-30 10:39:00,
2013-01-30 05:44:00,59.5,50.8,29.58,South,177,0.0,1.0,73,0.00,,,0.00,Wunderground v.1.15,2013-01-30 10:44:00,
2013-01-30 05:49:00,60.0,50.9,29.58,East,84,1.0,3.0,72,0.00,,,0.00,Wunderground v.1.15,2013-01-30 10:49:00,
2013-01-30 05:54:00,60.4,51.0,29.58,SE,130,1.0,1.0,71,0.00,,,0.00,Wunderground v.1.15,2013-01-30 10:54:00,
2013-01-30 06:00:00,61.3,51.0,29.58,ESE,106,1.0,1.0,69,0.00,,,0.00,Wunderground v.1.15,2013-01-30 11:00:00,
2013-01-30 06:06:00,61.8,51.5,29.57,South,171,1.0,4.0,69,0.00,,,0.00,Wunderground v.1.15,2013-01-30 11:06:00,
2013-01-30 06:11:00,62.2,51.5,29.56,South,174,1.0,5.0,68,0.00,,,0.00,Wunderground v.1.15,2013-01-30 11:11:00,
2013-01-30 06:16:00,62.3,52.0,29.56,SSW,211,2.0,7.0,69,0.00,,,0.00,Wunderground v.1.15,2013-01-30 11:16:00,
2013-01-30 06:21:00,62.1,51.8,29.56,ENE,75,1.0,1.0,69,0.00,,,0.00,Wunderground v.1.15,2013-01-30 11:21:00,
2013-01-30 06:27:00,61.6,51.7,29.55,East,99,1.0,3.0,70,0.00,,,0.00,Wunderground v.1.15,2013-01-30 11:27:00,
2013-01-30 06:32:00,61.7,52.2,29.55,SE,141,1.0,1.0,71,0.00,,,0.00,Wunderground v.1.15,2013-01-30 11:32:00,
2013-01-30 06:37:00,62.1,52.2,29.54,SSE,155,2.0,7.0,70,0.00,,,0.00,Wunderground v.1.15,2013-01-30 11:37:00,
2013-01-30 06:42:00,62.3,52.4,29.53,East,90,2.0,5.0,70,0.00,,,0.00,Wunderground v.1.15,2013-01-30 11:42:00,
2013-01-30 06:48:00,62.6,52.7,29.53,ESE,109,2.0,5.0,70,0.00,,,0.00,Wunderground v.1.15,2013-01-30 11:48:00,
2013-01-30 06:53:00,63.1,53.2,29.53,ESE,115,2.0,8.0,70,0.00,,,0.00,Wunderground v.1.15,2013-01-30 11:53:00,
2013-01-30 06:59:00,62.9,53.4,29.52,SSE,165,2.0,8.0,71,0.00,,,0.00,Wunderground v.1.15,2013-01-30 11:59:00,
2013-01-30 07:04:00,63.2,53.3,29.52,East,99,2.0,7.0,70,0.00,,,0.00,Wunderground v.1.15,2013-01-30 12:04:00,
2013-01-30 07:09:00,63.2,53.3,29.52,ENE,64,1.0,7.0,70,0.00,,,0.00,Wunderground v.1.15,2013-01-30 12:09:00,
2013-01-30 07:14:00,63.2,53.6,29.52,ESE,103,1.0,2.0,71,0.00,,,0.00,Wunderground v.1.15,2013-01-30 12:14:00,
2013-01-30 07:20:00,63.1,53.5,29.51,ESE,114,2.0,2.0,71,0.00,,,0.00,Wunderground v.1.15,2013-01-30 12:20:00,
2013-01-30 07:25:00,62.9,53.7,29.51,South,185,1.0,2.0,72,0.00,,,0.00,Wunderground v.1.15,2013-01-30 12:25:00,
2013-01-30 07:30:00,63.1,53.9,29.51,South,180,1.0,1.0,72,0.00,,,0.00,Wunderground v.1.15,2013-01-30 12:30:00,
2013-01-30 07:36:00,62.8,53.6,29.51,East,96,1.0,2.0,72,0.00,,,0.00,Wunderground v.1.15,2013-01-30 12:36:00,
2013-01-30 07:42:00,62.7,53.9,29.51,South,173,1.0,2.0,73,0.00,,,0.00,Wunderground v.1.15,2013-01-30 12:42:00,
2013-01-30 07:47:00,62.5,53.7,29.51,SSE,150,1.0,2.0,73,0.00,,,0.00,Wunderground v.1.15,2013-01-30 12:47:00,
2013-01-30 07:52:00,62.2,53.4,29.51,SSW,203,0.0,3.0,73,0.00,,,0.00,Wunderground v.1.15,2013-01-30 12:52:00,
2013-01-30 07:57:00,62.1,53.7,29.51,ESE,109,1.0,4.0,74,0.00,,,0.00,Wunderground v.1.15,2013-01-30 12:57:00,
2013-01-30 08:03:00,62.0,53.6,29.51,SE,142,1.0,2.0,74,0.00,,,0.00,Wunderground v.1.15,2013-01-30 13:03:00,
2013-01-30 08:08:00,62.0,53.6,29.50,ESE,107,0.0,2.0,74,0.00,,,0.00,Wunderground v.1.15,2013-01-30 13:08:00,
2013-01-30 08:13:00,62.1,53.7,29.50,SSE,155,1.0,4.0,74,0.00,,,0.00,Wunderground v.1.15,2013-01-30 13:13:00,
2013-01-30 08:19:00,62.2,53.8,29.50,North,360,1.0,4.0,74,0.00,,,0.00,Wunderground v.1.15,2013-01-30 13:19:00,
2013-01-30 08:25:00,61.9,53.9,29.50,ENE,76,0.0,1.0,75,0.00,,,0.00,Wunderground v.1.15,2013-01-30 13:25:00,
2013-01-30 08:30:00,61.6,53.6,29.50,ESE,111,0.0,0.0,75,0.00,,,0.00,Wunderground v.1.15,2013-01-30 13:30:00,
2013-01-30 08:35:00,61.3,53.7,29.49,ESE,109,0.0,2.0,76,0.00,,,0.00,Wunderground v.1.15,2013-01-30 13:35:00,
2013-01-30 08:40:00,62.5,54.1,29.48,South,171,1.0,2.0,74,0.00,,,0.00,Wunderground v.1.15,2013-01-30 13:40:00,
2013-01-30 08:45:00,63.6,54.8,29.48,ESE,121,2.0,5.0,73,0.00,,,0.00,Wunderground v.1.15,2013-01-30 13:45:00,
2013-01-30 08:50:00,64.2,54.2,29.47,ESE,118,2.0,2.0,70,0.00,,,0.00,Wunderground v.1.15,2013-01-30 13:50:00,
2013-01-30 08:56:00,64.6,54.2,29.47,South,179,2.0,4.0,69,0.00,,,0.00,Wunderground v.1.15,2013-01-30 13:56:00,
2013-01-30 09:02:00,64.8,54.4,29.47,ESE,111,2.0,6.0,69,0.00,,,0.00,Wunderground v.1.15,2013-01-30 14:02:00,
2013-01-30 09:07:00,64.9,54.1,29.47,South,176,2.0,6.0,68,0.00,,,0.00,Wunderground v.1.15,2013-01-30 14:07:00,
2013-01-30 09:12:00,65.1,54.3,29.46,SSE,149,2.0,6.0,68,0.00,,,0.00,Wunderground v.1.15,2013-01-30 14:12:00,
2013-01-30 09:17:00,64.9,54.5,29.46,SE,146,1.0,6.0,69,0.00,,,0.00,Wunderground v.1.15,2013-01-30 14:17:00,
2013-01-30 09:23:00,64.7,54.3,29.45,ESE,105,1.0,4.0,69,0.00,,,0.00,Wunderground v.1.15,2013-01-30 14:23:00,
2013-01-30 09:28:00,65.3,54.5,29.44,SSW,206,2.0,4.0,68,0.00,,,0.00,Wunderground v.1.15,2013-01-30 14:28:00,
2013-01-30 09:33:00,65.4,54.6,29.44,SE,139,2.0,3.0,68,0.00,,,0.00,Wunderground v.1.15,2013-01-30 14:33:00,
2013-01-30 09:39:00,65.6,54.8,29.44,East,92,1.0,5.0,68,0.00,,,0.00,Wunderground v.1.15,2013-01-30 14:39:00,
2013-01-30 09:44:00,65.7,54.8,29.43,ESE,120,1.0,1.0,68,0.00,,,0.00,Wunderground v.1.15,2013-01-30 14:44:00,
2013-01-30 09:49:00,65.7,54.4,29.43,East,98,1.0,3.0,67,0.00,,,0.00,Wunderground v.1.15,2013-01-30 14:49:00,
2013-01-30 09:55:00,66.1,54.4,29.42,SE,141,2.0,2.0,66,0.00,,,0.00,Wunderground v.1.15,2013-01-30 14:55:00,
2013-01-30 10:00:00,66.6,54.5,29.42,East,98,2.0,6.0,65,0.00,,,0.00,Wunderground v.1.15,2013-01-30 15:00:00,
2013-01-30 10:06:00,67.1,54.5,29.41,South,173,2.0,8.0,64,0.00,,,0.00,Wunderground v.1.15,2013-01-30 15:06:00,
2013-01-30 10:11:00,67.6,55.0,29.40,South,184,3.0,3.0,64,0.00,,,0.00,Wunderground v.1.15,2013-01-30 15:11:00,
2013-01-30 10:16:00,67.9,55.3,29.39,SSW,211,3.0,7.0,64,0.00,,,0.00,Wunderground v.1.15,2013-01-30 15:16:00,
2013-01-30 10:22:00,67.7,55.9,29.51,South,178,3.0,3.0,66,4.47,,,0.06,Wunderground v.1.15,2013-01-30 15:22:00,
2013-01-30 10:27:00,65.0,58.0,29.51,NNE,18,3.0,8.0,78,0.20,,,0.11,Wunderground v.1.15,2013-01-30 15:27:00,
2013-01-30 10:32:00,63.0,57.4,29.52,South,173,1.0,5.0,82,0.12,,,0.12,Wunderground v.1.15,2013-01-30 15:32:00,
2013-01-30 10:37:00,61.8,56.9,29.52,ESE,119,1.0,5.0,84,0.07,,,0.12,Wunderground v.1.15,2013-01-30 15:37:00,
2013-01-30 10:43:00,60.8,56.6,29.53,ESE,109,1.0,2.0,86,0.04,,,0.12,Wunderground v.1.15,2013-01-30 15:43:00,
2013-01-30 10:49:00,60.1,56.5,29.53,East,94,1.0,2.0,88,0.00,,,0.12,Wunderground v.1.15,2013-01-30 15:49:00,
2013-01-30 10:54:00,59.8,56.6,29.54,East,96,0.0,2.0,89,0.00,,,0.12,Wunderground v.1.15,2013-01-30 15:54:00,
2013-01-30 11:00:00,59.4,56.5,29.54,East,96,0.0,0.0,90,0.00,,,0.13,Wunderground v.1.15,2013-01-30 16:00:00,
2013-01-30 11:06:00,59.1,56.2,29.53,SE,144,0.0,1.0,90,0.00,,,0.13,Wunderground v.1.15,2013-01-30 16:06:00,
2013-01-30 11:11:00,59.0,56.4,29.53,SE,144,0.0,0.0,91,0.00,,,0.13,Wunderground v.1.15,2013-01-30 16:11:00,
2013-01-30 11:16:00,58.8,56.5,29.53,SE,144,0.0,0.0,92,0.00,,,0.13,Wunderground v.1.15,2013-01-30 16:16:00,
2013-01-30 11:21:00,58.6,56.3,29.53,SE,144,0.0,0.0,92,0.00,,,0.13,Wunderground v.1.15,2013-01-30 16:21:00,
2013-01-30 11:26:00,58.6,56.6,29.53,SE,144,0.0,0.0,93,0.00,,,0.14,Wunderground v.1.15,2013-01-30 16:26:00,
2013-01-30 11:32:00,58.6,56.6,29.53,SE,144,0.0,0.0,93,0.00,,,0.14,Wunderground v.1.15,2013-01-30 16:32:00,
2013-01-30 11:37:00,58.7,57.0,29.52,SE,144,0.0,0.0,94,0.00,,,0.14,Wunderground v.1.15,2013-01-30 16:37:00,
2013-01-30 11:42:00,58.8,57.1,29.52,SE,144,0.0,0.0,94,0.00,,,0.14,Wunderground v.1.15,2013-01-30 16:42:00,
2013-01-30 11:48:00,58.9,57.2,29.51,SE,144,0.0,0.0,94,0.00,,,0.14,Wunderground v.1.15,2013-01-30 16:48:00,
2013-01-30 11:53:00,58.9,57.2,29.51,SE,144,0.0,0.0,94,0.00,,,0.14,Wunderground v.1.15,2013-01-30 16:53:00,
2013-01-30 11:58:00,58.9,57.2,29.51,SE,144,0.0,0.0,94,0.00,,,0.14,Wunderground v.1.15,2013-01-30 16:58:00,
2013-01-30 12:03:00,58.8,57.1,29.51,SE,144,0.0,0.0,94,0.00,,,0.14,Wunderground v.1.15,2013-01-30 17:03:00,
2013-01-30 12:08:00,58.6,56.6,29.52,SE,144,0.0,0.0,93,0.00,,,0.14,Wunderground v.1.15,2013-01-30 17:08:00,
2013-01-30 12:14:00,58.4,56.4,29.52,SE,144,0.0,0.0,93,0.00,,,0.14,Wunderground v.1.15,2013-01-30 17:14:00,
2013-01-30 12:19:00,58.2,56.2,29.52,SE,146,0.0,0.0,93,0.00,,,0.14,Wunderground v.1.15,2013-01-30 17:19:00,
2013-01-30 12:24:00,58.1,56.1,29.53,East,87,0.0,1.0,93,0.00,,,0.14,Wunderground v.1.15,2013-01-30 17:24:00,
2013-01-30 12:29:00,58.0,56.0,29.52,East,94,0.0,1.0,93,0.00,,,0.14,Wunderground v.1.15,2013-01-30 17:29:00,
2013-01-30 12:34:00,58.0,56.0,29.52,ESE,114,0.0,3.0,93,0.00,,,0.14,Wunderground v.1.15,2013-01-30 17:34:00,
2013-01-30 12:40:00,58.0,56.3,29.52,NE,53,0.0,2.0,94,0.00,,,0.14,Wunderground v.1.15,2013-01-30 17:40:00,
2013-01-30 12:45:00,58.0,56.0,29.52,East,101,0.0,2.0,93,0.00,,,0.14,Wunderground v.1.15,2013-01-30 17:45:00,
2013-01-30 12:50:00,58.0,56.0,29.52,East,101,0.0,0.0,93,0.00,,,0.14,Wunderground v.1.15,2013-01-30 17:50:00,
2013-01-30 12:55:00,58.0,56.0,29.51,East,101,0.0,0.0,93,0.00,,,0.15,Wunderground v.1.15,2013-01-30 17:55:00,
2013-01-30 13:00:00,58.0,56.3,29.52,SSE,151,0.0,0.0,94,0.00,,,0.15,Wunderground v.1.15,2013-01-30 18:00:00,
2013-01-30 13:06:00,58.0,56.0,29.51,ESE,110,0.0,1.0,93,0.00,,,0.15,Wunderground v.1.15,2013-01-30 18:06:00,
2013-01-30 13:11:00,57.9,55.9,29.51,SE,128,0.0,0.0,93,0.00,,,0.15,Wunderground v.1.15,2013-01-30 18:11:00,
2013-01-30 13:16:00,57.7,55.7,29.51,ESE,114,0.0,1.0,93,0.00,,,0.16,Wunderground v.1.15,2013-01-30 18:16:00,
2013-01-30 13:21:00,57.7,55.7,29.52,NE,35,0.0,1.0,93,0.00,,,0.16,Wunderground v.1.15,2013-01-30 18:21:00,
2013-01-30 13:26:00,57.5,55.2,29.52,SW,216,0.0,2.0,92,0.00,,,0.16,Wunderground v.1.15,2013-01-30 18:26:00,
2013-01-30 13:32:00,57.2,54.9,29.53,South,171,0.0,0.0,92,0.04,,,0.17,Wunderground v.1.15,2013-01-30 18:32:00,
2013-01-30 13:37:00,57.0,55.0,29.53,South,182,0.0,1.0,93,0.08,,,0.18,Wunderground v.1.15,2013-01-30 18:37:00,
2013-01-30 13:42:00,56.8,54.8,29.53,SE,134,0.0,0.0,93,0.12,,,0.19,Wunderground v.1.15,2013-01-30 18:42:00,
2013-01-30 13:47:00,56.7,54.7,29.53,SE,134,0.0,0.0,93,0.12,,,0.20,Wunderground v.1.15,2013-01-30 18:47:00,
2013-01-30 13:53:00,56.4,54.4,29.53,North,355,0.0,0.0,93,0.10,,,0.21,Wunderground v.1.15,2013-01-30 18:53:00,
2013-01-30 13:58:00,56.4,54.4,29.52,East,84,0.0,1.0,93,0.13,,,0.22,Wunderground v.1.15,2013-01-30 18:58:00,
2013-01-30 14:04:00,56.4,54.4,29.51,ESE,107,1.0,2.0,93,0.08,,,0.23,Wunderground v.1.15,2013-01-30 19:04:00,
2013-01-30 14:09:00,56.4,54.4,29.51,East,93,1.0,3.0,93,0.08,,,0.23,Wunderground v.1.15,2013-01-30 19:09:00,
2013-01-30 14:14:00,56.4,54.4,29.51,ESE,107,1.0,2.0,93,0.09,,,0.24,Wunderground v.1.15,2013-01-30 19:14:00,
2013-01-30 14:20:00,56.5,54.2,29.50,SE,136,2.0,2.0,92,0.06,,,0.25,Wunderground v.1.15,2013-01-30 19:20:00,
2013-01-30 14:25:00,56.5,54.2,29.51,SE,138,1.0,2.0,92,0.06,,,0.25,Wunderground v.1.15,2013-01-30 19:25:00,
2013-01-30 14:30:00,56.4,54.1,29.50,ESE,113,0.0,0.0,92,0.06,,,0.26,Wunderground v.1.15,2013-01-30 19:30:00,
2013-01-30 14:36:00,56.3,54.0,29.50,ESE,113,0.0,0.0,92,0.06,,,0.26,Wunderground v.1.15,2013-01-30 19:36:00,
2013-01-30 14:41:00,56.2,53.9,29.50,East,100,0.0,1.0,92,0.08,,,0.27,Wunderground v.1.15,2013-01-30 19:41:00,
2013-01-30 14:46:00,56.1,53.8,29.50,East,98,0.0,1.0,92,0.08,,,0.28,Wunderground v.1.15,2013-01-30 19:46:00,
2013-01-30 14:51:00,56.0,53.7,29.50,ESE,106,0.0,1.0,92,0.08,,,0.28,Wunderground v.1.15,2013-01-30 19:51:00,
2013-01-30 14:57:00,56.0,54.0,29.50,ESE,113,1.0,3.0,93,0.06,,,0.29,Wunderground v.1.15,2013-01-30 19:57:00,
2013-01-30 15:02:00,56.0,54.0,29.50,East,98,1.0,2.0,93,0.06,,,0.29,Wunderground v.1.15,2013-01-30 20:02:00,
2013-01-30 15:07:00,56.0,54.0,29.49,NE,53,1.0,2.0,93,0.06,,,0.30,Wunderground v.1.15,2013-01-30 20:07:00,
2013-01-30 15:12:00,55.9,53.9,29.49,East,94,0.0,1.0,93,0.06,,,0.30,Wunderground v.1.15,2013-01-30 20:12:00,
2013-01-30 15:17:00,55.9,53.9,29.49,East,100,1.0,1.0,93,0.06,,,0.31,Wunderground v.1.15,2013-01-30 20:17:00,
2013-01-30 15:22:00,55.9,53.9,29.49,ESE,117,1.0,1.0,93,0.08,,,0.32,Wunderground v.1.15,2013-01-30 20:22:00,
2013-01-30 15:28:00,55.8,53.8,29.48,East,98,1.0,2.0,93,0.07,,,0.32,Wunderground v.1.15,2013-01-30 20:28:00,
2013-01-30 15:33:00,55.7,53.7,29.48,SE,142,1.0,2.0,93,0.06,,,0.33,Wunderground v.1.15,2013-01-30 20:33:00,
2013-01-30 15:38:00,55.7,53.7,29.48,South,173,1.0,2.0,93,0.06,,,0.33,Wunderground v.1.15,2013-01-30 20:38:00,
2013-01-30 15:44:00,55.6,53.6,29.47,ESE,106,1.0,3.0,93,0.08,,,0.34,Wunderground v.1.15,2013-01-30 20:44:00,
2013-01-30 15:49:00,55.5,53.5,29.47,ENE,76,1.0,3.0,93,0.06,,,0.34,Wunderground v.1.15,2013-01-30 20:49:00,
2013-01-30 15:54:00,55.5,53.5,29.47,ESE,106,0.0,3.0,93,0.05,,,0.35,Wunderground v.1.15,2013-01-30 20:54:00,
2013-01-30 15:59:00,55.4,53.4,29.47,ESE,114,0.0,3.0,93,0.05,,,0.35,Wunderground v.1.15,2013-01-30 20:59:00,
2013-01-30 16:05:00,55.3,53.3,29.47,SE,138,1.0,2.0,93,0.06,,,0.36,Wunderground v.1.15,2013-01-30 21:05:00,
2013-01-30 16:10:00,55.2,53.2,29.47,East,98,1.0,1.0,93,0.06,,,0.36,Wunderground v.1.15,2013-01-30 21:10:00,
2013-01-30 16:16:00,55.2,53.2,29.47,ENE,69,1.0,3.0,93,0.12,,,0.38,Wunderground v.1.15,2013-01-30 21:16:00,
2013-01-30 16:21:00,55.2,53.2,29.47,SE,132,1.0,1.0,93,0.13,,,0.39,Wunderground v.1.15,2013-01-30 21:21:00,
2013-01-30 16:27:00,55.1,53.1,29.47,East,79,1.0,2.0,93,0.16,,,0.40,Wunderground v.1.15,2013-01-30 21:27:00,
2013-01-30 16:32:00,55.1,53.4,29.47,SE,132,1.0,1.0,94,0.19,,,0.42,Wunderground v.1.15,2013-01-30 21:32:00,
2013-01-30 16:37:00,55.1,53.4,29.46,SSE,151,1.0,2.0,94,0.14,,,0.43,Wunderground v.1.15,2013-01-30 21:37:00,
2013-01-30 16:42:00,55.1,53.4,29.45,ESE,102,1.0,2.0,94,0.12,,,0.44,Wunderground v.1.15,2013-01-30 21:42:00,
2013-01-30 16:48:00,55.0,53.3,29.45,ESE,102,1.0,2.0,94,0.13,,,0.45,Wunderground v.1.15,2013-01-30 21:48:00,
2013-01-30 16:53:00,55.0,53.3,29.44,South,173,1.0,1.0,94,0.13,,,0.46,Wunderground v.1.15,2013-01-30 21:53:00,
2013-01-30 16:58:00,55.0,53.3,29.44,ESE,108,1.0,1.0,94,0.10,,,0.47,Wunderground v.1.15,2013-01-30 21:58:00,
2013-01-30 17:03:00,54.9,53.2,29.43,ESE,105,1.0,1.0,94,0.09,,,0.48,Wunderground v.1.15,2013-01-30 22:03:00,
2013-01-30 17:09:00,54.8,53.1,29.42,East,92,1.0,8.0,94,0.08,,,0.48,Wunderground v.1.15,2013-01-30 22:09:00,
2013-01-30 17:14:00,54.8,53.1,29.42,SSE,148,1.0,1.0,94,0.05,,,0.48,Wunderground v.1.15,2013-01-30 22:14:00,
2013-01-30 17:19:00,54.7,53.0,29.41,North,5,0.0,1.0,94,0.04,,,0.49,Wunderground v.1.15,2013-01-30 22:19:00,
2013-01-30 17:24:00,54.6,52.9,29.41,ESE,115,1.0,3.0,94,0.04,,,0.49,Wunderground v.1.15,2013-01-30 22:24:00,
2013-01-30 17:30:00,54.6,52.9,29.41,ESE,111,1.0,1.0,94,0.04,,,0.49,Wunderground v.1.15,2013-01-30 22:30:00,
2013-01-30 17:35:00,54.6,52.9,29.40,South,184,1.0,1.0,94,0.04,,,0.50,Wunderground v.1.15,2013-01-30 22:35:00,
2013-01-30 17:40:00,54.5,52.8,29.39,South,183,0.0,3.0,94,0.04,,,0.50,Wunderground v.1.15,2013-01-30 22:40:00,
2013-01-30 17:46:00,54.6,52.9,29.39,ESE,102,1.0,3.0,94,0.06,,,0.51,Wunderground v.1.15,2013-01-30 22:46:00,
2013-01-30 17:52:00,54.6,52.9,29.38,East,87,1.0,2.0,94,0.11,,,0.52,Wunderground v.1.15,2013-01-30 22:52:00,
2013-01-30 17:57:00,54.5,52.8,29.37,SW,227,1.0,4.0,94,0.08,,,0.53,Wunderground v.1.15,2013-01-30 22:57:00,
2013-01-30 18:02:00,54.5,52.8,29.36,South,180,1.0,1.0,94,0.07,,,0.53,Wunderground v.1.15,2013-01-30 23:02:00,
2013-01-30 18:07:00,54.5,52.8,29.36,WSW,241,1.0,5.0,94,0.06,,,0.54,Wunderground v.1.15,2013-01-30 23:07:00,
2013-01-30 18:13:00,54.6,52.9,29.36,SSW,199,2.0,5.0,94,0.07,,,0.54,Wunderground v.1.15,2013-01-30 23:13:00,
2013-01-30 18:19:00,54.7,53.0,29.36,SE,125,2.0,5.0,94,0.07,,,0.55,Wunderground v.1.15,2013-01-30 23:19:00,
2013-01-30 18:24:00,54.8,53.1,29.35,East,81,2.0,5.0,94,0.07,,,0.56,Wunderground v.1.15,2013-01-30 23:24:00,
2013-01-30 18:29:00,54.8,53.1,29.35,SE,144,1.0,5.0,94,0.07,,,0.56,Wunderground v.1.15,2013-01-30 23:29:00,
2013-01-30 18:35:00,54.9,53.2,29.34,South,182,1.0,5.0,94,0.05,,,0.57,Wunderground v.1.15,2013-01-30 23:35:00,
2013-01-30 18:40:00,54.9,53.2,29.34,SSE,166,2.0,2.0,94,0.12,,,0.58,Wunderground v.1.15,2013-01-30 23:40:00,
2013-01-30 18:45:00,54.9,53.2,29.35,SW,232,1.0,5.0,94,0.08,,,0.58,Wunderground v.1.15,2013-01-30 23:45:00,
2013-01-30 18:50:00,55.0,53.3,29.35,North,11,1.0,2.0,94,0.07,,,0.59,Wunderground v.1.15,2013-01-30 23:50:00,
2013-01-30 18:56:00,55.0,53.3,29.33,West,274,1.0,4.0,94,0.10,,,0.60,Wunderground v.1.15,2013-01-30 23:56:00,
2013-01-30 19:01:00,55.1,53.4,29.33,SE,130,2.0,3.0,94,0.22,,,0.62,Wunderground v.1.15,2013-01-31 00:01:00,
2013-01-30 19:06:00,55.2,53.5,29.32,SE,127,2.0,3.0,94,0.19,,,0.64,Wunderground v.1.15,2013-01-31 00:06:00,
2013-01-30 19:11:00,55.2,53.5,29.31,ESE,103,2.0,2.0,94,0.26,,,0.66,Wunderground v.1.15,2013-01-31 00:11:00,
2013-01-30 19:17:00,55.2,53.5,29.31,SE,141,1.0,2.0,94,0.13,,,0.67,Wunderground v.1.15,2013-01-31 00:17:00,
2013-01-30 19:22:00,55.2,53.5,29.31,SSE,161,1.0,2.0,94,0.08,,,0.67,Wunderground v.1.15,2013-01-31 00:22:00,
2013-01-30 19:27:00,55.2,53.5,29.31,SSW,209,1.0,2.0,94,0.07,,,0.68,Wunderground v.1.15,2013-01-31 00:27:00,
2013-01-30 19:32:00,55.2,53.5,29.30,SSW,209,1.0,4.0,94,0.08,,,0.69,Wunderground v.1.15,2013-01-31 00:32:00,
2013-01-30 19:38:00,55.3,53.6,29.29,SW,215,2.0,5.0,94,0.14,,,0.70,Wunderground v.1.15,2013-01-31 00:38:00,
2013-01-30 19:43:00,55.3,53.6,29.29,West,266,2.0,3.0,94,0.11,,,0.71,Wunderground v.1.15,2013-01-31 00:43:00,
2013-01-30 19:49:00,55.2,53.5,29.29,SSE,161,1.0,3.0,94,0.07,,,0.71,Wunderground v.1.15,2013-01-31 00:49:00,
2013-01-30 19:54:00,55.1,53.4,29.29,ENE,73,1.0,5.0,94,0.06,,,0.72,Wunderground v.1.15,2013-01-31 00:54:00,
2013-01-30 19:59:00,55.1,53.4,29.28,SW,234,0.0,5.0,94,0.06,,,0.72,Wunderground v.1.15,2013-01-31 00:59:00,
2013-01-30 20:04:00,55.1,53.4,29.26,SW,234,0.0,3.0,94,0.04,,,0.72,Wunderground v.1.15,2013-01-31 01:04:00,
2013-01-30 20:10:00,55.0,53.3,29.27,East,93,0.0,3.0,94,0.00,,,0.72,Wunderground v.1.15,2013-01-31 01:10:00,
2013-01-30 20:15:00,55.0,53.3,29.27,ESE,123,0.0,3.0,94,0.00,,,0.72,Wunderground v.1.15,2013-01-31 01:15:00,
2013-01-30 20:20:00,55.0,53.3,29.27,SE,124,1.0,1.0,94,0.00,,,0.73,Wunderground v.1.15,2013-01-31 01:20:00,
2013-01-30 20:25:00,55.0,53.3,29.27,SSE,168,0.0,3.0,94,0.00,,,0.73,Wunderground v.1.15,2013-01-31 01:25:00,
2013-01-30 20:31:00,54.9,53.2,29.27,ESE,121,0.0,0.0,94,0.06,,,0.74,Wunderground v.1.15,2013-01-31 01:31:00,
2013-01-30 20:37:00,54.9,53.2,29.26,ESE,111,0.0,0.0,94,0.16,,,0.77,Wunderground v.1.15,2013-01-31 01:37:00,
2013-01-30 20:42:00,54.9,53.5,29.26,SSE,148,0.0,2.0,95,0.13,,,0.78,Wunderground v.1.15,2013-01-31 01:42:00,
2013-01-30 20:47:00,54.9,53.5,29.28,WNW,295,0.0,2.0,95,0.60,,,0.80,Wunderground v.1.15,2013-01-31 01:47:00,
2013-01-30 20:53:00,54.8,53.1,29.27,South,186,0.0,4.0,94,0.14,,,0.82,Wunderground v.1.15,2013-01-31 01:53:00,
2013-01-30 20:58:00,54.4,52.1,29.26,East,92,1.0,4.0,92,0.06,,,0.82,Wunderground v.1.15,2013-01-31 01:58:00,
2013-01-30 21:04:00,54.0,51.7,29.25,ESE,116,0.0,1.0,92,0.05,,,0.83,Wunderground v.1.15,2013-01-31 02:04:00,
2013-01-30 21:09:00,53.8,51.8,29.25,WSW,243,0.0,2.0,93,0.05,,,0.83,Wunderground v.1.15,2013-01-31 02:09:00,
2013-01-30 21:14:00,53.5,51.5,29.25,NNE,25,0.0,1.0,93,0.04,,,0.83,Wunderground v.1.15,2013-01-31 02:14:00,
2013-01-30 21:19:00,53.4,51.1,29.25,South,169,0.0,3.0,92,0.00,,,0.83,Wunderground v.1.15,2013-01-31 02:19:00,
2013-01-30 21:25:00,53.2,51.2,29.25,SSW,199,0.0,0.0,93,0.00,,,0.84,Wunderground v.1.15,2013-01-31 02:25:00,
2013-01-30 21:30:00,52.9,50.9,29.25,SSE,158,0.0,3.0,93,0.00,,,0.84,Wunderground v.1.15,2013-01-31 02:30:00,
2013-01-30 21:35:00,52.8,50.5,29.25,NNE,24,1.0,3.0,92,0.07,,,0.85,Wunderground v.1.15,2013-01-31 02:35:00,
2013-01-30 21:41:00,52.6,50.6,29.25,East,89,1.0,1.0,93,0.06,,,0.85,Wunderground v.1.15,2013-01-31 02:41:00,
2013-01-30 21:47:00,52.4,50.4,29.25,ESE,123,0.0,1.0,93,0.06,,,0.86,Wunderground v.1.15,2013-01-31 02:47:00,
2013-01-30 21:52:00,52.2,50.2,29.25,NW,305,0.0,1.0,93,0.06,,,0.87,Wunderground v.1.15,2013-01-31 02:52:00,
2013-01-30 21:58:00,52.1,50.4,29.24,ESE,119,1.0,4.0,94,0.10,,,0.88,Wunderground v.1.15,2013-01-31 02:58:00,
2013-01-30 22:03:00,52.0,50.0,29.24,ENE,59,1.0,1.0,93,0.10,,,0.88,Wunderground v.1.15,2013-01-31 03:03:00,
2013-01-30 22:08:00,51.8,49.8,29.24,South,188,1.0,3.0,93,0.06,,,0.89,Wunderground v.1.15,2013-01-31 03:08:00,
2013-01-30 22:14:00,51.7,49.7,29.24,SSE,163,1.0,1.0,93,0.06,,,0.89,Wunderground v.1.15,2013-01-31 03:14:00,
2013-01-30 22:19:00,51.5,49.5,29.24,ESE,115,1.0,7.0,93,0.06,,,0.90,Wunderground v.1.15,2013-01-31 03:19:00,
2013-01-30 22:24:00,51.5,49.3,29.23,East,79,1.0,4.0,92,0.09,,,0.90,Wunderground v.1.15,2013-01-31 03:24:00,
2013-01-30 22:30:00,51.3,49.3,29.23,North,355,1.0,1.0,93,0.09,,,0.91,Wunderground v.1.15,2013-01-31 03:30:00,
2013-01-30 22:35:00,51.2,49.2,29.23,NNE,27,0.0,2.0,93,0.05,,,0.91,Wunderground v.1.15,2013-01-31 03:35:00,
2013-01-30 22:40:00,51.0,48.8,29.23,ENE,76,1.0,1.0,92,0.05,,,0.92,Wunderground v.1.15,2013-01-31 03:40:00,
2013-01-30 22:46:00,50.9,48.9,29.24,NNW,342,1.0,7.0,93,0.05,,,0.92,Wunderground v.1.15,2013-01-31 03:46:00,
2013-01-30 22:51:00,50.8,48.8,29.25,South,169,1.0,1.0,93,0.04,,,0.93,Wunderground v.1.15,2013-01-31 03:51:00,
2013-01-30 22:57:00,50.7,48.7,29.25,NNW,331,1.0,3.0,93,0.04,,,0.93,Wunderground v.1.15,2013-01-31 03:57:00,
2013-01-30 23:02:00,50.6,48.7,29.25,SW,235,1.0,2.0,93,0.06,,,0.94,Wunderground v.1.15,2013-01-31 04:02:00,
2013-01-30 23:08:00,50.5,48.6,29.25,ESE,115,1.0,2.0,93,0.08,,,0.95,Wunderground v.1.15,2013-01-31 04:08:00,
2013-01-30 23:13:00,50.3,48.4,29.25,NNE,22,1.0,4.0,93,0.08,,,0.95,Wunderground v.1.15,2013-01-31 04:13:00,
2013-01-30 23:18:00,50.1,47.9,29.24,North,5,1.0,4.0,92,0.06,,,0.95,Wunderground v.1.15,2013-01-31 04:18:00,
2013-01-30 23:23:00,49.9,47.4,29.24,West,271,1.0,4.0,91,0.16,,,0.97,Wunderground v.1.15,2013-01-31 04:23:00,
2013-01-30 23:28:00,49.5,46.4,29.24,NNW,342,2.0,5.0,89,0.13,,,0.98,Wunderground v.1.15,2013-01-31 04:28:00,
2013-01-30 23:33:00,49.3,46.2,29.25,SSE,150,2.0,2.0,89,0.09,,,0.98,Wunderground v.1.15,2013-01-31 04:33:00,
2013-01-30 23:39:00,49.0,46.2,29.26,ENE,68,1.0,2.0,90,0.05,,,0.98,Wunderground v.1.15,2013-01-31 04:39:00,
2013-01-30 23:44:00,48.8,46.0,29.27,North,11,0.0,3.0,90,0.00,,,0.98,Wunderground v.1.15,2013-01-31 04:44:00,
2013-01-30 23:49:00,48.6,45.8,29.26,WNW,303,1.0,3.0,90,0.00,,,0.98,Wunderground v.1.15,2013-01-31 04:49:00,
2013-01-30 23:55:00,48.4,45.6,29.24,East,82,1.0,2.0,90,0.00,,,0.98,Wunderground v.1.15,2013-01-31 04:55:00,